• In Hungary
  • List of Countries
  • For 7 days
  • Water Temperature
  • Satellite Maps
  • Weather Map
  • News
  • Weather Widgets
  • user-avatar
    Login

    Hourly Weather Bodzanow

    Today, 13 November, Tuesday

    Time Temperature Precipitation Wind Pressure Humidity
    00:00 +8°C° 0 mm 4 mps 756 mmHg 85%
    01:00 +8°C° 0 mm 4 mps 756 mmHg 87%
    02:00 +7°C° 0 mm 4 mps 756 mmHg 88%
    03:00 +7°C° 0 mm 4 mps 756 mmHg 89%
    04:00 +8°C° 0 mm 3 mps 756 mmHg 91%
    05:00 +8°C° 0 mm 3 mps 756 mmHg 91%
    06:00 +8°C° 0 mm 3 mps 756 mmHg 92%
    07:00 +8°C° 0 mm 3 mps 756 mmHg 93%
    08:00 +9°C° 0 mm 3 mps 756 mmHg 88%
    09:00 +10°C° 0 mm 3 mps 756 mmHg 84%
    10:00 +11°C° 0 mm 3 mps 756 mmHg 80%
    11:00 +11°C° 0 mm 3 mps 756 mmHg 78%
    12:00 +12°C° 0 mm 3 mps 755 mmHg 76%
    13:00 +13°C° 0 mm 3 mps 755 mmHg 74%
    14:00 +12°C° 0.2 mm 3 mps 755 mmHg 77%
    15:00 +12°C° 0.2 mm 3 mps 755 mmHg 79%
    16:00 +11°C° 0.2 mm 3 mps 755 mmHg 82%
    17:00 +11°C° 1 mm 4 mps 755 mmHg 84%
    18:00 +10°C° 1 mm 5 mps 755 mmHg 86%
    19:00 +10°C° 1 mm 6 mps 755 mmHg 87%
    20:00 +9°C° 0.6 mm 6 mps 756 mmHg 87%
    21:00 +9°C° 0.6 mm 6 mps 756 mmHg 86%
    22:00 +8°C° 0.6 mm 5 mps 756 mmHg 85%
    23:00 +8°C° 0 mm 5 mps 757 mmHg 87%

    Tomorrow, 14 November, Wednesday

    Time Temperature Precipitation Wind Pressure Humidity
    00:00 +7°C° 0 mm 5 mps 757 mmHg 89%
    01:00 +7°C° 0 mm 4 mps 757 mmHg 91%
    02:00 +7°C° 0 mm 5 mps 757 mmHg 90%
    03:00 +7°C° 0 mm 5 mps 757 mmHg 89%
    04:00 +7°C° 0 mm 6 mps 757 mmHg 88%
    05:00 +7°C° 0 mm 5 mps 758 mmHg 87%
    06:00 +7°C° 0 mm 5 mps 758 mmHg 86%
    07:00 +7°C° 0 mm 5 mps 758 mmHg 85%
    08:00 +7°C° 0.1 mm 6 mps 758 mmHg 84%
    09:00 +7°C° 0.1 mm 6 mps 759 mmHg 83%
    10:00 +8°C° 0.1 mm 6 mps 759 mmHg 82%
    11:00 +8°C° 0.1 mm 6 mps 759 mmHg 80%
    12:00 +8°C° 0.1 mm 6 mps 759 mmHg 79%
    13:00 +8°C° 0.1 mm 5 mps 759 mmHg 77%
    14:00 +8°C° 0 mm 5 mps 759 mmHg 79%
    15:00 +8°C° 0 mm 5 mps 760 mmHg 80%
    16:00 +8°C° 0 mm 5 mps 760 mmHg 82%
    17:00 +7°C° 0 mm 4 mps 760 mmHg 84%
    18:00 +7°C° 0 mm 4 mps 761 mmHg 86%
    19:00 +8°C° 0 mm 3 mps 761 mmHg 88%
    20:00 +7°C° 0 mm 3 mps 761 mmHg 90%
    21:00 +7°C° 0 mm 3 mps 761 mmHg 91%
    22:00 +7°C° 0 mm 3 mps 762 mmHg 92%
    23:00 +6°C° 0 mm 2 mps 762 mmHg 93%

    Day after tomorrow, 15 November, Thursday

    Time Temperature Precipitation Wind Pressure Humidity
    00:00 +6°C° 0 mm 2 mps 762 mmHg 94%
    01:00 +6°C° 0 mm 2 mps 762 mmHg 95%
    02:00 +5°C° 0 mm 2 mps 762 mmHg 95%
    03:00 +5°C° 0 mm 2 mps 762 mmHg 95%
    04:00 +5°C° 0 mm 2 mps 762 mmHg 95%
    05:00 +5°C° 0 mm 2 mps 763 mmHg 95%
    06:00 +6°C° 0 mm 1 mps 763 mmHg 95%
    07:00 +5°C° 0 mm 1 mps 763 mmHg 95%
    08:00 +6°C° 0 mm 1 mps 763 mmHg 91%
    09:00 +7°C° 0 mm 1 mps 764 mmHg 88%
    10:00 +8°C° 0 mm 1 mps 764 mmHg 84%
    11:00 +9°C° 0 mm 1 mps 764 mmHg 81%
    12:00 +9°C° 0 mm 1 mps 764 mmHg 78%
    13:00 +10°C° 0 mm 1 mps 764 mmHg 75%
    14:00 +9°C° 0 mm 1 mps 764 mmHg 78%
    15:00 +9°C° 0 mm 1 mps 764 mmHg 82%
    16:00 +8°C° 0 mm 1 mps 764 mmHg 86%
    17:00 +7°C° 0 mm 1 mps 764 mmHg 88%
    18:00 +7°C° 0 mm 1 mps 765 mmHg 90%
    19:00 +6°C° 0 mm 2 mps 765 mmHg 91%
    20:00 +5°C° 0 mm 2 mps 765 mmHg 92%
    21:00 +5°C° 0 mm 2 mps 765 mmHg 93%
    22:00 +5°C° 0 mm 2 mps 765 mmHg 94%
    23:00 +5°C° 0 mm 2 mps 766 mmHg 94%

    16 November, Friday

    Time Temperature Precipitation Wind Pressure Humidity
    00:00 +4°C° 0 mm 2 mps 766 mmHg 94%
    01:00 +4°C° 0 mm 2 mps 766 mmHg 94%
    02:00 +4°C° 0 mm 2 mps 766 mmHg 93%
    03:00 +4°C° 0 mm 2 mps 766 mmHg 93%
    04:00 +4°C° 0 mm 2 mps 766 mmHg 93%
    05:00 +3°C° 0 mm 2 mps 767 mmHg 93%
    06:00 +3°C° 0 mm 2 mps 767 mmHg 93%
    07:00 +3°C° 0 mm 2 mps 767 mmHg 93%
    08:00 +3°C° 0 mm 2 mps 767 mmHg 89%
    09:00 +4°C° 0 mm 2 mps 768 mmHg 84%
    10:00 +4°C° 0 mm 3 mps 768 mmHg 80%
    11:00 +5°C° 0 mm 3 mps 768 mmHg 77%
    12:00 +5°C° 0 mm 3 mps 768 mmHg 74%
    13:00 +7°C° 0 mm 2 mps 768 mmHg 71%
    14:00 +6°C° 0 mm 2 mps 768 mmHg 74%
    15:00 +6°C° 0 mm 2 mps 768 mmHg 78%
    16:00 +5°C° 0 mm 2 mps 768 mmHg 82%
    17:00 +5°C° 0 mm 2 mps 768 mmHg 84%
    18:00 +4°C° 0 mm 2 mps 768 mmHg 86%
    19:00 +4°C° 0 mm 2 mps 768 mmHg 88%
    20:00 +3°C° 0 mm 2 mps 768 mmHg 89%
    21:00 +3°C° 0 mm 2 mps 769 mmHg 89%
    22:00 +3°C° 0 mm 2 mps 769 mmHg 90%
    23:00 +3°C° 0 mm 2 mps 769 mmHg 90%

    17 November, Saturday

    Time Temperature Precipitation Wind Pressure Humidity
    00:00 +2°C° 0 mm 2 mps 769 mmHg 91%
    01:00 +2°C° 0 mm 2 mps 769 mmHg 91%
    02:00 +2°C° 0 mm 2 mps 769 mmHg 91%
    03:00 +2°C° 0 mm 2 mps 769 mmHg 91%
    04:00 +1°C° 0 mm 2 mps 769 mmHg 91%
    05:00 +1°C° 0 mm 2 mps 769 mmHg 91%
    06:00 +1°C° 0 mm 2 mps 769 mmHg 92%
    07:00 +1°C° 0 mm 2 mps 769 mmHg 92%
    08:00 +2°C° 0 mm 2 mps 769 mmHg 87%
    09:00 +3°C° 0 mm 2 mps 769 mmHg 82%
    10:00 +4°C° 0 mm 2 mps 769 mmHg 77%
    11:00 +4°C° 0 mm 2 mps 769 mmHg 73%
    12:00 +5°C° 0 mm 2 mps 769 mmHg 70%
    13:00 +6°C° 0 mm 2 mps 769 mmHg 66%
    14:00 +5°C° 0 mm 2 mps 769 mmHg 69%
    15:00 +4°C° 0 mm 2 mps 768 mmHg 72%
    16:00 +5°C° 0 mm 1 mps 768 mmHg 76%
    17:00 +4°C° 0 mm 1 mps 768 mmHg 77%
    18:00 +4°C° 0 mm 1 mps 768 mmHg 79%
    19:00 +4°C° 0 mm 1 mps 768 mmHg 81%
    20:00 +3°C° 0 mm 1 mps 768 mmHg 82%
    21:00 +3°C° 0 mm 1 mps 768 mmHg 83%
    22:00 +3°C° 0 mm 1 mps 768 mmHg 84%
    23:00 +3°C° 0 mm 1 mps 767 mmHg 84%

    18 November, Sunday

    Time Temperature Precipitation Wind Pressure Humidity
    00:00 +2°C° 0 mm 0 mps 767 mmHg 85%
    01:00 +1°C° 0 mm 0 mps 767 mmHg 85%
    02:00 +2°C° 0 mm 1 mps 766 mmHg 85%
    03:00 +2°C° 0 mm 1 mps 766 mmHg 86%
    04:00 +2°C° 0 mm 1 mps 765 mmHg 86%
    05:00 +1°C° 0 mm 2 mps 765 mmHg 86%
    06:00 +1°C° 0 mm 2 mps 765 mmHg 87%
    07:00 +1°C° 0 mm 2 mps 764 mmHg 87%
    08:00 +2°C° 0 mm 2 mps 764 mmHg 83%
    09:00 +2°C° 0 mm 3 mps 763 mmHg 80%
    10:00 +3°C° 0 mm 3 mps 763 mmHg 76%
    11:00 +4°C° 0 mm 3 mps 762 mmHg 75%
    12:00 +4°C° 0 mm 4 mps 762 mmHg 75%
    13:00 +5°C° 0 mm 4 mps 761 mmHg 75%
    14:00 +5°C° 0 mm 4 mps 760 mmHg 78%
    15:00 +5°C° 0 mm 4 mps 760 mmHg 82%
    16:00 +5°C° 0 mm 4 mps 759 mmHg 85%
    17:00 +5°C° 0 mm 4 mps 759 mmHg 84%
    18:00 +5°C° 0 mm 5 mps 759 mmHg 82%
    19:00 +3°C° 0 mm 5 mps 758 mmHg 81%
    20:00 +3°C° 0 mm 5 mps 758 mmHg 78%
    21:00 +3°C° 0 mm 5 mps 758 mmHg 75%
    22:00 +3°C° 0 mm 5 mps 758 mmHg 73%
    23:00 +2°C° 0 mm 5 mps 758 mmHg 75%
    Show more